DW6016 Weather Reports


time (UTC)temp
C
wind
direction
speed
KPH
gust
KPH
rain 1hr
cm
rain 24hr
cm
rain mn
cm
humidity
%
barometer
mb
20260906201856 14 307 0.0 0.0 0.00 1.32 1.32 99 1017.9
20260906201350 14 308 0.0 0.0 0.00 1.32 1.32 99 1018.0
20260906200845 14 308 0.0 0.0 0.00 1.32 1.32 99 1018.0
20260906200342 14 308 0.0 0.0 0.00 1.32 1.32 99 1018.1
20260906195836 14 320 0.0 0.0 0.00 1.32 1.32 99 1018.0
20260906195333 14 316 0.0 0.0 0.00 1.32 1.32 99 1017.8
20260906194828 14 316 0.0 0.0 0.00 1.32 1.32 99 1017.9
20260906194324 14 314 0.0 0.0 0.18 1.32 1.32 99 1017.9
20260906193818 14 319 0.0 1.6 0.18 1.32 1.32 99 1018.1
20260906193314 14 313 0.0 0.0 0.00 1.30 1.30 99 1017.9
20260906192809 14 314 0.0 0.0 0.00 1.30 1.30 99 1017.9
20260906192306 13 304 0.0 0.0 0.00 1.30 1.30 99 1018.0
20260906191803 13 306 0.0 0.0 0.00 1.30 1.30 99 1017.8
20260906191257 14 265 1.6 1.6 0.00 1.30 1.30 99 1017.8
20260906190752 13 312 0.0 0.0 0.00 1.30 1.30 99 1017.9
20260906190246 13 303 0.0 0.0 0.00 1.30 1.30 99 1017.9
20260906185745 13 334 0.0 0.0 0.00 1.30 1.30 99 1017.8
20260906185244 13 305 0.0 0.0 0.00 1.30 1.30 99 1017.8
20260906184739 13 304 0.0 0.0 0.00 1.30 1.30 99 1017.9
20260906184234 13 305 0.0 0.0 0.00 1.30 1.30 99 1017.8
20260906183730 13 304 0.0 0.0 0.00 1.30 1.30 99 1018.0
20260906183226 13 304 0.0 0.0 0.00 1.30 1.30 99 1017.7
20260906182725 13 304 0.0 0.0 0.00 1.30 1.30 99 1017.7
20260906182222 13 304 0.0 0.0 0.00 1.30 1.30 99 1017.8
20260906181711 13 305 0.0 0.0 0.00 1.30 1.30 99 1017.7
20260906181208 13 307 0.0 0.0 0.00 1.30 1.30 99 1017.9
20260906180702 13 307 0.0 0.0 0.18 1.30 1.30 99 1017.7
20260906180157 13 307 0.0 0.0 0.18 1.30 1.30 99 1017.7
20260906175655 13 307 0.0 0.0 0.18 1.30 1.30 99 1017.6
20260906175150 13 307 0.0 0.0 0.00 1.27 1.27 99 1017.6
20260906174648 13 306 0.0 0.0 0.13 1.27 1.27 99 1017.7
20260906174143 13 307 0.0 0.0 0.13 1.27 1.27 99 1017.7
20260906173639 13 307 0.0 0.0 0.00 1.24 1.24 99 1017.7
20260906173134 13 306 0.0 0.0 0.18 1.24 1.24 99 1017.7
20260906172633 13 306 0.0 0.0 0.18 1.24 1.24 99 1017.6
20260906172129 13 306 0.0 0.0 0.13 1.22 1.22 99 1017.7
20260906171628 13 314 0.0 0.0 0.30 1.22 1.22 99 1017.5
20260906171125 13 314 0.0 0.0 0.30 1.19 1.19 99 1017.7
20260906170621 13 315 0.0 0.0 0.30 1.17 1.17 99 1017.7
20260906170120 13 316 0.0 0.0 0.30 1.14 1.14 99 1017.7
20260906165616 13 301 0.0 0.0 0.43 1.12 1.12 99 1017.5
20260906165112 13 301 0.0 0.0 0.61 1.09 1.09 99 1017.6
20260906164610 12 316 0.0 0.0 0.48 1.04 1.04 99 1017.6
20260906164106 13 343 0.0 1.6 0.61 1.02 1.02 99 1017.7
20260906163602 13 321 0.0 0.0 0.61 0.97 0.97 99 1017.3
20260906163057 13 321 0.0 0.0 0.61 0.91 0.91 99 1017.3
20260906162554 12 321 0.0 0.0 0.48 0.86 0.86 99 1017.5
20260906162049 12 321 0.0 0.0 0.61 0.84 0.84 99 1017.3
20260906161544 12 321 0.0 0.0 0.30 0.76 0.76 99 1017.2
20260906161043 12 322 0.0 0.0 0.30 0.74 0.74 99 1017.4
20260906160542 12 321 0.0 0.0 0.30 0.71 0.71 99 1017.4
20260906160041 12 321 0.0 0.0 0.30 0.69 0.69 99 1017.2
20260906155538 12 321 0.0 0.0 0.48 0.66 0.66 99 1017.3
20260906155034 12 322 0.0 0.0 0.48 0.64 0.64 99 1017.1
20260906154529 12 322 0.0 0.0 0.43 0.61 0.61 99 1017.2
20260906154028 12 322 0.0 0.0 0.30 0.56 0.56 99 1017.2
20260906153527 12 322 0.0 0.0 0.30 0.53 0.53 99 1017.1
20260906153023 12 322 0.0 0.0 0.30 0.51 0.51 99 1017.3
20260906152517 12 322 0.0 0.0 0.18 0.48 0.48 99 1017.1
20260906152016 12 322 0.0 0.0 0.30 0.48 0.48 99 1017.1
20260906151512 12 322 0.0 0.0 0.30 0.46 0.46 99 1017.3
20260906151008 12 323 0.0 0.0 0.30 0.43 0.43 99 1017.1
20260906150502 12 304 0.0 0.0 0.30 0.41 0.41 99 1017.0
20260906150001 12 304 0.0 0.0 0.30 0.38 0.38 99 1017.2
20260906145456 12 304 0.0 0.0 0.30 0.36 0.36 99 1016.9
20260906144956 13 309 0.0 0.0 0.18 0.33 0.33 99 1017.1
20260906144451 13 309 0.0 0.0 0.36 0.33 0.33 99 1016.9
20260906143946 13 309 0.0 0.0 0.18 0.30 0.30 99 1016.9
20260906143441 13 311 0.0 0.0 0.13 0.28 0.28 99 1016.8
20260906142937 13 311 0.0 0.0 0.13 0.28 0.28 99 1016.7
20260906142437 13 311 0.0 0.0 0.00 0.25 0.25 99 1016.6
20260906141932 13 311 0.0 0.0 0.00 0.25 0.25 99 1016.6
20260906141432 13 312 0.0 0.0 0.18 0.25 0.25 99 1016.8
20260906140926 13 312 0.0 0.0 0.18 0.25 0.25 99 1016.7
20260906140421 13 312 0.0 0.0 0.00 0.23 0.23 99 1016.6
20260906135919 13 312 0.0 0.0 0.13 0.23 0.23 99 1016.6
20260906135418 13 312 0.0 0.0 0.30 0.23 0.23 99 1016.6
20260906134914 13 330 0.0 0.0 0.30 0.20 0.20 99 1016.6
20260906134409 13 310 0.0 0.0 0.30 0.20 0.20 99 1016.4
20260906133904 13 310 0.0 0.0 0.18 0.15 0.15 99 1016.4
20260906133400 13 310 0.0 0.0 0.30 0.15 0.15 99 1016.2
20260906132855 13 310 0.0 0.0 0.30 0.13 0.13 99 1016.1
20260906132350 13 310 0.0 0.0 0.30 0.10 0.10 99 1016.0
20260906131846 13 310 0.0 0.0 0.30 0.08 0.08 99 1016.1
20260906131341 13 310 0.0 0.0 0.18 0.05 0.05 99 1016.1
20260906130837 13 310 0.0 0.0 0.00 0.03 0.03 99 1016.0
20260906130336 13 310 0.0 0.0 0.00 0.03 0.03 99 1016.1
20260906125835 13 310 0.0 0.0 0.00 0.03 0.03 99 1016.0
20260906125332 13 310 0.0 0.0 0.00 0.03 0.03 99 1016.0
20260906124827 13 310 0.0 0.0 0.00 0.03 0.03 98 1016.1
20260906124324 13 310 0.0 0.0 0.00 0.03 0.03 98 1016.1
20260906123822 13 310 0.0 0.0 0.00 0.03 0.03 97 1016.0
20260906123318 13 310 0.0 0.0 0.00 0.03 0.03 97 1015.9
20260906122817 13 310 0.0 0.0 0.00 0.03 0.03 96 1016.1
20260906122312 13 310 0.0 0.0 0.00 0.03 0.03 96 1016.2
20260906121809 14 310 0.0 0.0 0.18 0.03 0.03 95 1016.4
20260906121305 14 310 0.0 0.0 0.18 0.03 0.03 95 1016.3
20260906120801 14 310 0.0 0.0 0.00 0.00 0.00 94 1016.4
20260906120257 14 310 0.0 0.0 0.00 0.00 0.00 93 1016.4
20260906115753 14 310 0.0 0.0 0.00 0.00 0.00 93 1016.4
20260906115248 14 310 0.0 0.0 0.00 0.00 0.00 93 1016.5
20260906114747 14 312 0.0 0.0 0.00 0.00 0.00 92 1016.3
20260906114242 14 311 0.0 0.0 0.00 0.00 0.00 92 1016.4
20260906113738 14 313 0.0 0.0 0.00 0.00 0.00 92 1016.3
20260906113237 14 318 0.0 0.0 0.00 0.00 0.00 92 1016.3
20260906112737 14 319 0.0 0.0 0.00 0.00 0.00 92 1016.3
20260906112233 15 319 0.0 0.0 0.00 0.00 0.00 92 1016.3
20260906111733 14 327 1.6 1.6 0.00 0.00 0.00 92 1016.4
20260906111227 14 330 0.0 1.6 0.00 0.00 0.00 93 1016.3
20260906110722 14 329 0.0 0.0 0.00 0.00 0.00 93 1016.3
20260906110218 14 330 0.0 0.0 0.00 0.00 0.00 93 1016.0
20260906105717 14 316 0.0 0.0 0.00 0.00 0.00 93 1016.1
20260906105214 14 316 0.0 0.0 0.00 0.00 0.00 93 1016.0
20260906104713 14 321 0.0 0.0 0.00 0.00 0.00 93 1016.2
20260906104212 14 321 0.0 0.0 0.00 0.00 0.00 93 1016.0
20260906103710 14 321 0.0 0.0 0.00 0.00 0.00 92 1016.1
20260906103205 15 321 0.0 0.0 0.00 0.00 0.00 92 1016.1
20260906102701 15 321 0.0 0.0 0.00 0.00 0.00 92 1016.2
20260906102159 15 321 0.0 0.0 0.00 0.00 0.00 92 1016.1
20260906101654 15 317 0.0 0.0 0.00 0.00 0.00 92 1016.2
20260906101149 15 313 0.0 1.6 0.00 0.00 0.00 92 1016.3
20260906100644 15 320 0.0 1.6 0.00 0.00 0.00 92 1016.2
20260906100139 15 316 0.0 0.0 0.00 0.00 0.00 92 1016.2
20260906095634 15 306 0.0 0.0 0.00 0.00 0.00 92 1016.2
20260906095129 15 309 0.0 0.0 0.00 0.00 0.00 92 1016.0
20260906094628 15 314 0.0 0.0 0.00 0.00 0.00 91 1015.9
20260906094124 15 330 1.6 1.6 0.00 0.00 0.00 91 1016.0
20260906093620 15 303 0.0 0.0 0.00 0.00 0.00 91 1016.1
20260906093114 15 309 0.0 0.0 0.00 0.00 0.00 91 1016.1
20260906092609 15 310 0.0 0.0 0.00 0.00 0.00 91 1015.9
20260906092104 15 312 0.0 0.0 0.00 0.00 0.00 92 1016.3
20260906091601 15 305 0.0 0.0 0.00 0.00 0.00 92 1016.1
20260906091057 15 314 0.0 0.0 0.00 0.00 0.00 92 1016.1
20260906090557 15 302 1.6 1.6 0.00 0.00 0.00 92 1015.9
20260906090057 15 304 0.0 0.0 0.00 0.00 0.00 92 1015.9
20260906085556 15 304 0.0 1.6 0.00 0.00 0.00 92 1016.1
20260906085050 15 304 0.0 1.6 0.00 0.00 0.00 91 1015.9
20260906084545 15 303 1.6 1.6 0.00 0.00 0.00 91 1016.3
20260906084044 15 302 0.0 0.0 0.00 0.00 0.00 90 1016.1
20260906083540 15 299 0.0 1.6 0.00 0.00 0.00 90 1016.1
20260906083039 15 327 0.0 1.6 0.00 0.00 0.00 90 1016.0
20260906082535 15 332 0.0 0.0 0.00 0.00 0.00 89 1016.0
20260906082030 15 330 0.0 1.6 0.00 0.00 0.00 89 1016.1
20260906081526 15 312 0.0 1.6 0.00 0.00 0.00 90 1016.1
20260906081021 15 316 0.0 0.0 0.00 0.00 0.00 89 1016.0
20260906080518 15 308 0.0 0.0 0.00 0.00 0.00 89 1016.0
20260906080014 15 307 0.0 0.0 0.00 0.00 0.00 88 1016.0
20260906075507 15 305 0.0 0.0 0.00 0.00 0.00 88 1016.1
20260906075002 15 299 0.0 0.0 0.00 0.00 0.00 88 1016.1
20260906074457 15 299 1.6 1.6 0.00 0.00 0.00 88 1016.2
20260906073955 15 314 0.0 0.0 0.00 0.00 0.00 88 1016.1
20260906073450 15 316 0.0 0.0 0.00 0.00 0.00 88 1016.2
20260906072946 15 316 0.0 0.0 0.00 0.00 0.00 88 1016.0
20260906072441 15 316 0.0 0.0 0.00 0.00 0.00 88 1016.1
20260906071938 15 320 0.0 0.0 0.00 0.00 0.00 88 1016.1
20260906071433 15 305 0.0 0.0 0.00 0.00 0.00 88 1016.1
20260906070929 15 309 0.0 0.0 0.00 0.00 0.00 87 1016.2
20260906070425 15 317 0.0 0.0 0.00 0.00 0.00 87 1016.2
20260906065921 15 317 0.0 0.0 0.00 0.00 0.00 87 1016.1
20260906065420 15 316 0.0 0.0 0.00 0.00 0.00 87 1016.2
20260906064916 15 315 0.0 0.0 0.00 0.00 0.00 87 1016.3
20260906064412 15 315 0.0 0.0 0.00 0.00 0.00 86 1016.2
20260906063907 15 309 0.0 0.0 0.00 0.00 0.00 86 1016.3
20260906063402 15 308 0.0 0.0 0.00 0.00 0.00 86 1016.1
20260906062857 15 310 0.0 0.0 0.00 0.00 0.00 86 1016.4
20260906062356 15 308 0.0 0.0 0.00 0.00 0.00 86 1016.1
20260906061852 15 308 0.0 0.0 0.00 0.00 0.00 86 1016.2
20260906061348 15 308 0.0 0.0 0.00 0.00 0.00 86 1016.2
20260906060842 16 308 0.0 0.0 0.00 0.00 0.00 85 1016.0
20260906060340 16 310 0.0 0.0 0.00 0.00 0.00 85 1016.2
20260906055836 16 314 0.0 0.0 0.00 0.00 0.00 85 1016.4
20260906055331 16 316 0.0 0.0 0.00 0.00 0.00 84 1016.6
20260906054826 16 318 1.6 1.6 0.00 0.00 0.00 84 1016.4
20260906054321 15 7 1.6 1.6 0.00 0.00 0.00 85 1016.4
20260906053818 15 301 0.0 0.0 0.00 0.00 0.00 87 1016.3
20260906053313 15 309 0.0 0.0 0.00 0.00 0.00 87 1016.3
20260906052809 15 306 0.0 0.0 0.00 0.00 0.00 87 1016.4
20260906052306 15 309 0.0 0.0 0.00 0.00 0.00 88 1016.4
20260906051802 14 310 0.0 0.0 0.00 0.00 0.00 88 1016.5
20260906051301 14 310 0.0 0.0 0.00 0.00 0.00 88 1016.4
20260906050756 14 307 0.0 0.0 0.00 0.00 0.00 88 1016.4
20260906050252 14 307 0.0 0.0 0.00 0.00 0.00 88 1016.4
20260906045750 14 307 0.0 0.0 0.00 0.00 0.00 88 1016.4
20260906045245 14 307 0.0 0.0 0.00 0.00 0.00 88 1016.2
20260906044741 14 307 0.0 0.0 0.00 0.00 0.00 88 1016.6
20260906044236 14 307 0.0 0.0 0.00 0.00 0.00 88 1016.7
20260906043732 14 307 0.0 0.0 0.00 0.00 0.00 88 1016.4
20260906043228 14 307 0.0 0.0 0.00 0.00 0.00 88 1016.6
20260906042727 14 307 0.0 0.0 0.00 0.00 0.00 87 1016.7
20260906042226 14 307 0.0 0.0 0.00 0.00 0.00 87 1016.6
20260906041722 14 307 0.0 0.0 0.00 0.00 0.00 86 1016.5
20260906041217 15 307 0.0 0.0 0.00 0.00 0.00 86 1016.6
20260906040713 15 307 0.0 0.0 0.00 0.00 0.00 85 1016.6
20260906040208 15 307 0.0 0.0 0.00 0.00 0.00 84 1016.6
20260906035703 15 307 0.0 0.0 0.00 0.00 0.00 84 1016.6
20260906035159 15 307 0.0 0.0 0.00 0.00 0.00 84 1016.8
20260906034653 15 307 0.0 0.0 0.00 0.00 0.00 84 1016.4
20260906034148 15 307 0.0 0.0 0.00 0.00 0.00 84 1016.5
20260906033644 15 307 0.0 0.0 0.00 0.00 0.00 82 1016.2
20260906033143 15 307 0.0 0.0 0.00 0.00 0.00 81 1016.1
20260906032640 15 307 0.0 0.0 0.00 0.00 0.00 80 1016.2
20260906032140 16 307 0.0 0.0 0.00 0.00 0.00 80 1016.1
20260906031635 16 307 0.0 0.0 0.00 0.00 0.00 79 1016.0
20260906031131 16 307 0.0 0.0 0.00 0.00 0.00 77 1016.1
20260906030630 16 307 0.0 0.0 0.00 0.00 0.00 77 1015.9
20260906030126 16 307 0.0 0.0 0.00 0.00 0.00 76 1016.2
20260906025625 16 307 0.0 0.0 0.00 0.00 0.00 74 1016.0
20260906025124 17 307 0.0 0.0 0.00 0.00 0.00 74 1016.1
20260906024619 17 307 0.0 0.0 0.00 0.00 0.00 72 1015.9
20260906024113 17 307 0.0 0.0 0.00 0.00 0.00 73 1016.1
20260906023609 17 307 0.0 0.0 0.00 0.00 0.00 72 1016.0
20260906023103 17 308 0.0 0.0 0.00 0.00 0.00 70 1016.0
20260906022559 18 308 0.0 0.0 0.00 0.00 0.00 69 1015.9
20260906022054 18 307 0.0 0.0 0.00 0.00 0.00 68 1016.1
20260906021550 18 307 0.0 1.6 0.00 0.00 0.00 67 1016.0
20260906021049 18 307 0.0 0.0 0.00 0.00 0.00 66 1016.2
20260906020549 18 310 0.0 0.0 0.00 0.00 0.00 66 1016.2
20260906020048 18 311 0.0 0.0 0.00 0.00 0.00 67 1016.0
20260906015548 19 310 0.0 0.0 0.00 0.00 0.00 66 1016.1
20260906015047 20 310 0.0 0.0 0.00 0.00 0.00 63 1016.0
20260906014542 20 310 0.0 1.6 0.00 0.00 0.00 62 1016.0
20260906014038 20 315 0.0 0.0 0.00 0.00 0.00 60 1016.1
20260906013533 20 308 1.6 1.6 0.00 0.00 0.00 59 1016.2
20260906013029 21 345 0.0 1.6 0.00 0.00 0.00 57 1016.1
20260906012524 21 311 0.0 0.0 0.00 0.00 0.00 57 1016.0
20260906012023 21 321 0.0 1.6 0.00 0.00 0.00 58 1016.3
20260906011519 21 105 3.2 3.2 0.00 0.00 0.00 56 1016.0
20260906011019 21 309 0.0 0.0 0.00 0.00 0.00 56 1016.0
20260906010514 21 333 1.6 1.6 0.00 0.00 0.00 55 1015.9
20260906010011 21 318 1.6 1.6 0.00 0.00 0.00 56 1016.0
20260906005510 21 295 0.0 0.0 0.00 0.00 0.00 56 1015.9
20260906005009 21 296 0.0 0.0 0.00 0.00 0.00 55 1016.2
20260906004503 21 301 0.0 0.0 0.00 0.00 0.00 57 1016.1
20260906003958 21 313 4.8 4.8 0.00 0.00 0.00 55 1016.1
20260906003453 21 310 0.0 0.0 0.00 0.00 0.00 55 1016.3
20260906002948 21 334 0.0 0.0 0.00 0.00 0.00 54 1016.2
20260906002443 21 326 0.0 0.0 0.00 0.00 0.00 54 1016.3
20260906001938 21 96 4.8 4.8 0.00 0.00 0.00 53 1016.0
20260906001434 21 67 3.2 4.8 0.00 0.00 0.00 53 1015.9
20260906000928 21 297 1.6 1.6 0.00 0.00 0.00 54 1016.3
20260906000425 21 298 0.0 1.6 0.00 0.00 0.00 54 1016.1
20260905235913 21 317 1.6 1.6 0.00 0.00 0.00 56 1016.2
20260905235413 21 61 3.2 4.8 0.00 0.00 0.00 55 1016.2
20260905234908 21 300 0.0 0.0 0.00 0.00 0.00 56 1016.2
20260905234403 21 65 1.6 1.6 0.00 0.00 0.00 56 1016.1
20260905233858 21 276 0.0 1.6 0.00 0.00 0.00 56 1016.1
20260905233353 21 309 4.8 4.8 0.00 0.00 0.00 57 1016.2
20260905232852 21 342 0.0 0.0 0.00 0.00 0.00 57 1016.3
20260905232349 21 307 3.2 3.2 0.00 0.00 0.00 56 1016.1
20260905231844 21 48 1.6 1.6 0.00 0.00 0.00 58 1016.4
20260905231338 21 84 3.2 4.8 0.00 0.00 0.00 58 1016.4
20260905230836 21 317 1.6 3.2 0.00 0.00 0.00 60 1016.3
20260905230333 20 310 1.6 1.6 0.00 0.00 0.00 59 1016.3
20260905225832 21 302 4.8 4.8 0.00 0.00 0.00 59 1016.4
20260905225327 20 300 1.6 1.6 0.00 0.00 0.00 60 1016.5
20260905224822 20 304 4.8 4.8 0.00 0.00 0.00 60 1016.7
20260905224318 20 304 0.0 0.0 0.00 0.00 0.00 61 1016.6
20260905223812 21 316 3.2 3.2 0.00 0.00 0.00 59 1016.6
20260905223310 21 282 1.6 1.6 0.00 0.00 0.00 57 1016.6
20260905222805 20 304 0.0 0.0 0.00 0.00 0.00 62 1016.6
20260905222306 21 310 4.8 4.8 0.00 0.00 0.00 57 1016.7
20260905221800 21 322 4.8 8.0 0.00 0.00 0.00 58 1016.7
20260905221256 20 99 1.6 1.6 0.00 0.00 0.00 61 1016.7
20260905220752 20 317 1.6 1.6 0.00 0.00 0.00 60 1016.8
20260905220248 20 309 0.0 0.0 0.00 0.00 0.00 61 1016.9
20260905215747 20 304 3.2 3.2 0.00 0.00 0.00 60 1016.8
20260905215243 21 308 1.6 1.6 0.00 0.00 0.00 58 1016.9
20260905214739 21 297 3.2 3.2 0.00 0.00 0.00 58 1016.8
20260905214235 21 311 0.0 0.0 0.00 0.00 0.00 58 1016.8
20260905213730 22 305 0.0 1.6 0.00 0.00 0.00 60 1016.9
20260905213226 21 341 0.0 1.6 0.00 0.00 0.00 60 1017.0
20260905212721 21 312 1.6 1.6 0.00 0.00 0.00 58 1017.0
20260905212219 21 312 1.6 1.6 0.00 0.00 0.00 59 1016.9
20260905211714 21 311 0.0 0.0 0.00 0.00 0.00 60 1016.9
20260905211209 20 303 1.6 3.2 0.00 0.00 0.00 62 1017.0
20260905210706 20 307 1.6 1.6 0.00 0.00 0.00 62 1017.0
20260905210206 21 319 3.2 3.2 0.00 0.00 0.00 61 1017.0
20260905205705 21 300 0.0 1.6 0.00 0.00 0.00 59 1017.0
20260905205205 22 222 3.2 3.2 0.00 0.00 0.00 58 1017.2
20260905204705 22 336 1.6 1.6 0.00 0.00 0.00 56 1017.1
20260905204200 21 314 1.6 1.6 0.00 0.00 0.00 61 1017.2
20260905203654 20 320 0.0 0.0 0.00 0.00 0.00 61 1017.2
20260905203150 20 315 0.0 0.0 0.00 0.00 0.00 63 1017.2
20260905202645 20 303 3.2 4.8 0.00 0.00 0.00 63 1017.4